| time (UTC) | temp F | wind direction | speed MPH | gust MPH | rain 1hr in | rain 24hr in | rain mn in | humidity % | barometer mb |
| 20260507205049 | 70 | 252 | 3.0 | 12.0 | 0.00 | 0.00 | 0.00 | 33 | 1017.1 |
| 20260507204545 | 69 | 217 | 2.0 | 7.0 | 0.00 | 0.00 | 0.00 | 34 | 1016.9 |
| 20260507204043 | 71 | 141 | 0.0 | 5.0 | 0.00 | 0.00 | 0.00 | 34 | 1017.0 |
| 20260507203540 | 69 | 164 | 3.0 | 7.0 | 0.00 | 0.00 | 0.00 | 34 | 1017.0 |
| 20260507203038 | 71 | 269 | 2.0 | 6.0 | 0.00 | 0.00 | 0.00 | 34 | 1017.0 |
| 20260507202533 | 71 | 243 | 5.0 | 6.0 | 0.00 | 0.00 | 0.00 | 34 | 1017.2 |
| 20260507202030 | 69 | 147 | 3.0 | 9.0 | 0.00 | 0.00 | 0.00 | 35 | 1017.4 |
| 20260507201525 | 71 | 247 | 4.0 | 6.0 | 0.00 | 0.00 | 0.00 | 36 | 1017.3 |
| 20260507201022 | 71 | 205 | 1.0 | 6.0 | 0.00 | 0.00 | 0.00 | 34 | 1017.2 |
| 20260507200517 | 70 | 167 | 3.0 | 7.0 | 0.00 | 0.00 | 0.00 | 34 | 1017.5 |
| 20260507200014 | 70 | 109 | 3.0 | 5.0 | 0.00 | 0.00 | 0.00 | 36 | 1017.5 |
| 20260507195511 | 70 | 163 | 3.0 | 6.0 | 0.00 | 0.00 | 0.00 | 36 | 1017.4 |
| 20260507195009 | 69 | 133 | 2.0 | 8.0 | 0.00 | 0.00 | 0.00 | 37 | 1017.4 |
| 20260507194505 | 70 | 186 | 4.0 | 5.0 | 0.00 | 0.00 | 0.00 | 33 | 1017.5 |
| 20260507194001 | 70 | 139 | 2.0 | 6.0 | 0.00 | 0.00 | 0.00 | 38 | 1017.7 |
| 20260507193458 | 69 | 259 | 4.0 | 11.0 | 0.00 | 0.00 | 0.00 | 35 | 1017.6 |
| 20260507192954 | 70 | 140 | 3.0 | 5.0 | 0.00 | 0.00 | 0.00 | 35 | 1017.4 |
| 20260507192450 | 69 | 214 | 1.0 | 7.0 | 0.00 | 0.00 | 0.00 | 37 | 1017.6 |
| 20260507191948 | 70 | 330 | 3.0 | 5.0 | 0.00 | 0.00 | 0.00 | 35 | 1017.6 |
| 20260507191443 | 69 | 231 | 1.0 | 6.0 | 0.00 | 0.00 | 0.00 | 33 | 1017.7 |
| 20260507190940 | 68 | 173 | 3.0 | 4.0 | 0.00 | 0.00 | 0.00 | 36 | 1017.9 |
| 20260507190438 | 69 | 328 | 3.0 | 5.0 | 0.00 | 0.00 | 0.00 | 34 | 1017.8 |
| 20260507185937 | 69 | 210 | 2.0 | 9.0 | 0.00 | 0.00 | 0.00 | 32 | 1017.8 |
| 20260507185434 | 69 | 229 | 3.0 | 6.0 | 0.00 | 0.00 | 0.00 | 33 | 1018.0 |
| 20260507184930 | 72 | 230 | 4.0 | 6.0 | 0.00 | 0.00 | 0.00 | 32 | 1018.1 |
| 20260507184428 | 70 | 154 | 2.0 | 5.0 | 0.00 | 0.00 | 0.00 | 34 | 1018.2 |
| 20260507183926 | 70 | 167 | 5.0 | 8.0 | 0.00 | 0.00 | 0.00 | 34 | 1018.1 |
| 20260507183422 | 70 | 170 | 3.0 | 7.0 | 0.00 | 0.00 | 0.00 | 33 | 1017.8 |
| 20260507182920 | 68 | 237 | 2.0 | 6.0 | 0.00 | 0.00 | 0.00 | 36 | 1018.2 |
| 20260507182415 | 69 | 151 | 2.0 | 13.0 | 0.00 | 0.00 | 0.00 | 35 | 1018.2 |
| 20260507181912 | 67 | 246 | 0.0 | 4.0 | 0.00 | 0.00 | 0.00 | 36 | 1018.1 |
| 20260507181408 | 70 | 246 | 3.0 | 5.0 | 0.00 | 0.00 | 0.00 | 35 | 1018.3 |
| 20260507180905 | 67 | 242 | 3.0 | 6.0 | 0.00 | 0.00 | 0.00 | 36 | 1018.6 |
| 20260507180402 | 69 | 147 | 2.0 | 4.0 | 0.00 | 0.00 | 0.00 | 39 | 1018.3 |
| 20260507175858 | 70 | 149 | 4.0 | 6.0 | 0.00 | 0.00 | 0.00 | 36 | 1018.7 |
| 20260507175354 | 68 | 190 | 0.0 | 6.0 | 0.00 | 0.00 | 0.00 | 34 | 1018.5 |
| 20260507174852 | 68 | 293 | 3.0 | 7.0 | 0.00 | 0.00 | 0.00 | 37 | 1018.8 |
| 20260507174349 | 68 | 195 | 4.0 | 9.0 | 0.00 | 0.00 | 0.00 | 34 | 1018.8 |
| 20260507173847 | 67 | 70 | 0.0 | 7.0 | 0.00 | 0.00 | 0.00 | 42 | 1018.7 |
| 20260507173344 | 66 | 248 | 2.0 | 8.0 | 0.00 | 0.00 | 0.00 | 35 | 1018.8 |
| 20260507172840 | 67 | 173 | 2.0 | 7.0 | 0.00 | 0.00 | 0.00 | 38 | 1019.0 |
| 20260507172337 | 66 | 136 | 3.0 | 11.0 | 0.00 | 0.00 | 0.00 | 37 | 1019.2 |
| 20260507171832 | 69 | 168 | 6.0 | 14.0 | 0.00 | 0.00 | 0.00 | 33 | 1019.0 |
| 20260507171329 | 69 | 303 | 0.0 | 5.0 | 0.00 | 0.00 | 0.00 | 36 | 1019.3 |
| 20260507170826 | 68 | 126 | 3.0 | 11.0 | 0.00 | 0.00 | 0.00 | 34 | 1019.3 |
| 20260507170323 | 67 | 227 | 3.0 | 6.0 | 0.00 | 0.00 | 0.00 | 35 | 1019.4 |
| 20260507165819 | 66 | 68 | 2.0 | 9.0 | 0.00 | 0.00 | 0.00 | 39 | 1019.5 |
| 20260507165315 | 66 | 150 | 4.0 | 6.0 | 0.00 | 0.00 | 0.00 | 36 | 1019.6 |
| 20260507164811 | 68 | 112 | 2.0 | 5.0 | 0.00 | 0.00 | 0.00 | 35 | 1019.7 |
| 20260507164309 | 65 | 175 | 3.0 | 5.0 | 0.00 | 0.00 | 0.00 | 40 | 1019.6 |
| 20260507163806 | 66 | 268 | 1.0 | 9.0 | 0.00 | 0.00 | 0.00 | 40 | 1019.7 |
| 20260507163303 | 65 | 32 | 2.0 | 3.0 | 0.00 | 0.00 | 0.00 | 42 | 1019.7 |
| 20260507162759 | 66 | 185 | 2.0 | 5.0 | 0.00 | 0.00 | 0.00 | 39 | 1019.6 |
| 20260507162255 | 64 | 201 | 2.0 | 4.0 | 0.00 | 0.00 | 0.00 | 43 | 1019.6 |
| 20260507161752 | 64 | 252 | 2.0 | 6.0 | 0.00 | 0.00 | 0.00 | 40 | 1019.8 |
| 20260507161249 | 64 | 325 | 3.0 | 5.0 | 0.00 | 0.00 | 0.00 | 43 | 1019.9 |
| 20260507160745 | 63 | 179 | 0.0 | 5.0 | 0.00 | 0.00 | 0.00 | 43 | 1020.0 |
| 20260507160241 | 62 | 262 | 2.0 | 5.0 | 0.00 | 0.00 | 0.00 | 41 | 1020.0 |
| 20260507155737 | 63 | 250 | 2.0 | 6.0 | 0.00 | 0.00 | 0.00 | 41 | 1019.9 |
| 20260507155233 | 64 | 112 | 3.0 | 5.0 | 0.00 | 0.00 | 0.00 | 39 | 1020.1 |
| 20260507154730 | 61 | 248 | 2.0 | 7.0 | 0.00 | 0.00 | 0.00 | 38 | 1020.2 |
| 20260507154228 | 63 | 244 | 3.0 | 4.0 | 0.00 | 0.00 | 0.00 | 38 | 1019.9 |
| 20260507153724 | 62 | 208 | 2.0 | 5.0 | 0.00 | 0.00 | 0.00 | 48 | 1020.1 |
| 20260507153221 | 62 | 270 | 2.0 | 5.0 | 0.00 | 0.00 | 0.00 | 42 | 1020.2 |
| 20260507152717 | 62 | 226 | 3.0 | 9.0 | 0.00 | 0.00 | 0.00 | 42 | 1020.1 |
| 20260507152213 | 62 | 184 | 3.0 | 7.0 | 0.00 | 0.00 | 0.00 | 44 | 1020.3 |
| 20260507151709 | 60 | 355 | 2.0 | 5.0 | 0.00 | 0.00 | 0.00 | 45 | 1020.4 |
| 20260507151206 | 61 | 274 | 0.0 | 3.0 | 0.00 | 0.00 | 0.00 | 48 | 1020.3 |
| 20260507150703 | 60 | 267 | 3.0 | 4.0 | 0.00 | 0.00 | 0.00 | 44 | 1020.2 |
| 20260507150200 | 60 | 171 | 1.0 | 4.0 | 0.00 | 0.00 | 0.00 | 48 | 1020.4 |
| 20260507145656 | 59 | 156 | 0.0 | 3.0 | 0.00 | 0.00 | 0.00 | 57 | 1020.6 |
| 20260507145152 | 58 | 350 | 2.0 | 6.0 | 0.00 | 0.00 | 0.00 | 51 | 1020.6 |
| 20260507144649 | 57 | 142 | 2.0 | 3.0 | 0.00 | 0.00 | 0.00 | 65 | 1020.6 |
| 20260507144148 | 56 | 269 | 0.0 | 4.0 | 0.00 | 0.00 | 0.00 | 62 | 1020.5 |
| 20260507143644 | 55 | 72 | 0.0 | 3.0 | 0.00 | 0.00 | 0.00 | 64 | 1020.7 |
| 20260507143141 | 55 | 118 | 2.0 | 6.0 | 0.00 | 0.00 | 0.00 | 64 | 1020.7 |
| 20260507142636 | 55 | 38 | 0.0 | 2.0 | 0.00 | 0.00 | 0.00 | 66 | 1020.6 |
| 20260507142133 | 55 | 188 | 0.0 | 5.0 | 0.00 | 0.00 | 0.00 | 66 | 1020.7 |
| 20260507141629 | 53 | 260 | 0.0 | 4.0 | 0.00 | 0.00 | 0.00 | 76 | 1020.7 |
| 20260507141127 | 53 | 20 | 0.0 | 2.0 | 0.00 | 0.00 | 0.00 | 74 | 1021.0 |
| 20260507140623 | 53 | 143 | 0.0 | 6.0 | 0.00 | 0.00 | 0.00 | 71 | 1020.9 |
| 20260507140121 | 52 | 87 | 0.0 | 2.0 | 0.00 | 0.00 | 0.00 | 77 | 1020.9 |
| 20260507135618 | 51 | 126 | 0.0 | 3.0 | 0.00 | 0.00 | 0.00 | 75 | 1020.6 |
| 20260507135115 | 51 | 226 | 0.0 | 2.0 | 0.00 | 0.00 | 0.00 | 81 | 1020.6 |
| 20260507134611 | 50 | 29 | 0.0 | 2.0 | 0.00 | 0.00 | 0.00 | 76 | 1020.8 |
| 20260507134107 | 49 | 134 | 0.0 | 4.0 | 0.00 | 0.00 | 0.00 | 79 | 1020.8 |
| 20260507133603 | 48 | 236 | 0.0 | 3.0 | 0.00 | 0.00 | 0.00 | 87 | 1020.7 |
| 20260507133101 | 47 | 89 | 0.0 | 2.0 | 0.00 | 0.00 | 0.00 | 92 | 1020.7 |
| 20260507132558 | 46 | 92 | 0.0 | 3.0 | 0.00 | 0.00 | 0.00 | 93 | 1020.6 |
| 20260507132054 | 46 | 44 | 0.0 | 2.0 | 0.00 | 0.00 | 0.00 | 94 | 1020.7 |
| 20260507131551 | 45 | 73 | 0.0 | 2.0 | 0.00 | 0.00 | 0.00 | 95 | 1020.7 |
| 20260507131048 | 45 | 57 | 1.0 | 2.0 | 0.00 | 0.00 | 0.00 | 96 | 1020.7 |
| 20260507130545 | 44 | 60 | 0.0 | 2.0 | 0.00 | 0.00 | 0.00 | 97 | 1020.7 |
| 20260507130043 | 44 | 70 | 1.0 | 2.0 | 0.00 | 0.00 | 0.00 | 97 | 1020.8 |
| 20260507125542 | 44 | 89 | 0.0 | 2.0 | 0.00 | 0.00 | 0.00 | 98 | 1021.1 |
| 20260507125039 | 44 | 72 | 1.0 | 2.0 | 0.00 | 0.00 | 0.00 | 98 | 1020.8 |
| 20260507124535 | 43 | 56 | 1.0 | 2.0 | 0.00 | 0.00 | 0.00 | 98 | 1020.8 |
| 20260507124033 | 42 | 94 | 0.0 | 2.0 | 0.00 | 0.00 | 0.00 | 98 | 1020.7 |
| 20260507123531 | 42 | 60 | 0.0 | 2.0 | 0.00 | 0.00 | 0.00 | 98 | 1020.4 |
| 20260507123027 | 42 | 69 | 1.0 | 2.0 | 0.00 | 0.00 | 0.00 | 97 | 1020.6 |
| 20260507122522 | 41 | 81 | 1.0 | 2.0 | 0.00 | 0.00 | 0.00 | 97 | 1020.6 |
| 20260507122019 | 40 | 89 | 1.0 | 2.0 | 0.00 | 0.00 | 0.00 | 97 | 1020.6 |
| 20260507121514 | 40 | 96 | 2.0 | 2.0 | 0.00 | 0.00 | 0.00 | 97 | 1020.7 |
| 20260507121010 | 39 | 91 | 1.0 | 2.0 | 0.00 | 0.00 | 0.00 | 97 | 1020.7 |
| 20260507120507 | 39 | 85 | 1.0 | 2.0 | 0.00 | 0.00 | 0.00 | 97 | 1020.6 |
| 20260507120005 | 39 | 119 | 1.0 | 2.0 | 0.00 | 0.00 | 0.00 | 97 | 1020.4 |
| 20260507115500 | 38 | 83 | 1.0 | 2.0 | 0.00 | 0.00 | 0.00 | 97 | 1020.3 |
| 20260507114955 | 38 | 108 | 1.0 | 3.0 | 0.00 | 0.00 | 0.00 | 96 | 1020.3 |
| 20260507114452 | 38 | 73 | 2.0 | 2.0 | 0.00 | 0.00 | 0.00 | 96 | 1020.4 |
| 20260507113949 | 37 | 92 | 1.0 | 2.0 | 0.00 | 0.00 | 0.00 | 96 | 1020.2 |
| 20260507113446 | 37 | 107 | 1.0 | 2.0 | 0.00 | 0.00 | 0.00 | 96 | 1020.3 |
| 20260507112944 | 37 | 114 | 2.0 | 3.0 | 0.00 | 0.00 | 0.00 | 96 | 1020.3 |
| 20260507112441 | 37 | 114 | 1.0 | 3.0 | 0.00 | 0.00 | 0.00 | 96 | 1020.1 |
| 20260507111938 | 37 | 108 | 2.0 | 3.0 | 0.00 | 0.00 | 0.00 | 96 | 1020.2 |
| 20260507111435 | 38 | 107 | 2.0 | 3.0 | 0.00 | 0.00 | 0.00 | 96 | 1020.2 |
| 20260507110931 | 37 | 114 | 2.0 | 3.0 | 0.00 | 0.00 | 0.00 | 96 | 1020.1 |
| 20260507110427 | 37 | 107 | 2.0 | 3.0 | 0.00 | 0.00 | 0.00 | 96 | 1020.0 |
| 20260507105924 | 38 | 81 | 2.0 | 2.0 | 0.00 | 0.00 | 0.00 | 96 | 1020.2 |
| 20260507105421 | 38 | 97 | 2.0 | 3.0 | 0.00 | 0.00 | 0.00 | 96 | 1019.8 |
| 20260507104918 | 38 | 95 | 2.0 | 3.0 | 0.00 | 0.00 | 0.00 | 96 | 1020.0 |
| 20260507104415 | 38 | 101 | 2.0 | 3.0 | 0.00 | 0.00 | 0.00 | 95 | 1019.9 |
| 20260507103910 | 38 | 105 | 2.0 | 3.0 | 0.00 | 0.00 | 0.00 | 95 | 1019.9 |
| 20260507103407 | 38 | 89 | 2.0 | 3.0 | 0.00 | 0.00 | 0.00 | 95 | 1019.6 |
| 20260507102903 | 38 | 94 | 2.0 | 2.0 | 0.00 | 0.00 | 0.00 | 95 | 1019.6 |
| 20260507102400 | 39 | 110 | 2.0 | 2.0 | 0.00 | 0.00 | 0.00 | 95 | 1020.0 |
| 20260507101857 | 39 | 86 | 1.0 | 2.0 | 0.00 | 0.00 | 0.00 | 96 | 1019.8 |
| 20260507101357 | 39 | 98 | 1.0 | 2.0 | 0.00 | 0.00 | 0.00 | 96 | 1019.8 |
| 20260507100854 | 39 | 105 | 2.0 | 2.0 | 0.00 | 0.00 | 0.00 | 96 | 1020.0 |
| 20260507100352 | 39 | 118 | 2.0 | 2.0 | 0.00 | 0.00 | 0.00 | 96 | 1019.7 |
| 20260507095850 | 39 | 127 | 0.0 | 2.0 | 0.00 | 0.00 | 0.00 | 96 | 1019.9 |
| 20260507095346 | 39 | 82 | 2.0 | 2.0 | 0.00 | 0.00 | 0.00 | 96 | 1019.6 |
| 20260507094843 | 39 | 84 | 1.0 | 2.0 | 0.00 | 0.00 | 0.00 | 96 | 1019.8 |
| 20260507094339 | 39 | 106 | 2.0 | 2.0 | 0.00 | 0.00 | 0.00 | 96 | 1019.7 |
| 20260507093837 | 39 | 103 | 1.0 | 2.0 | 0.00 | 0.00 | 0.00 | 96 | 1019.9 |
| 20260507093335 | 39 | 100 | 1.0 | 2.0 | 0.00 | 0.00 | 0.00 | 96 | 1019.8 |
| 20260507092833 | 39 | 104 | 2.0 | 3.0 | 0.00 | 0.00 | 0.00 | 96 | 1019.7 |
| 20260507092329 | 39 | 98 | 1.0 | 2.0 | 0.00 | 0.00 | 0.00 | 96 | 1019.6 |
| 20260507091825 | 39 | 103 | 2.0 | 2.0 | 0.00 | 0.00 | 0.00 | 95 | 1019.9 |
| 20260507091322 | 38 | 85 | 0.0 | 2.0 | 0.00 | 0.00 | 0.00 | 96 | 1019.8 |
| 20260507090817 | 38 | 99 | 1.0 | 2.0 | 0.00 | 0.00 | 0.00 | 95 | 1019.9 |
| 20260507090314 | 38 | 99 | 2.0 | 3.0 | 0.00 | 0.00 | 0.00 | 95 | 1019.9 |
| 20260507085811 | 38 | 111 | 2.0 | 3.0 | 0.00 | 0.00 | 0.00 | 95 | 1019.9 |
| 20260507085308 | 38 | 108 | 2.0 | 3.0 | 0.00 | 0.00 | 0.00 | 95 | 1020.0 |
| 20260507084806 | 38 | 99 | 2.0 | 2.0 | 0.00 | 0.00 | 0.00 | 95 | 1020.0 |
| 20260507084301 | 38 | 102 | 0.0 | 3.0 | 0.00 | 0.00 | 0.00 | 95 | 1020.0 |
| 20260507083759 | 38 | 99 | 2.0 | 3.0 | 0.00 | 0.00 | 0.00 | 95 | 1020.2 |
| 20260507083255 | 38 | 106 | 2.0 | 3.0 | 0.00 | 0.00 | 0.00 | 95 | 1020.2 |
| 20260507082751 | 38 | 93 | 1.0 | 2.0 | 0.00 | 0.00 | 0.00 | 95 | 1020.3 |
| 20260507082247 | 38 | 95 | 1.0 | 2.0 | 0.00 | 0.00 | 0.00 | 94 | 1020.4 |
| 20260507081744 | 38 | 107 | 2.0 | 3.0 | 0.00 | 0.00 | 0.00 | 94 | 1020.2 |
| 20260507081240 | 39 | 97 | 2.0 | 3.0 | 0.00 | 0.00 | 0.00 | 94 | 1020.3 |
| 20260507080737 | 39 | 105 | 2.0 | 3.0 | 0.00 | 0.00 | 0.00 | 94 | 1020.4 |
| 20260507080233 | 39 | 106 | 2.0 | 3.0 | 0.00 | 0.00 | 0.00 | 94 | 1020.2 |
| 20260507075729 | 39 | 101 | 2.0 | 2.0 | 0.00 | 0.00 | 0.00 | 94 | 1020.3 |
| 20260507075225 | 39 | 119 | 0.0 | 3.0 | 0.00 | 0.00 | 0.00 | 94 | 1020.4 |
| 20260507074722 | 39 | 109 | 2.0 | 2.0 | 0.00 | 0.00 | 0.00 | 94 | 1020.2 |
| 20260507074220 | 39 | 118 | 0.0 | 2.0 | 0.00 | 0.00 | 0.00 | 94 | 1020.2 |
| 20260507073716 | 39 | 95 | 1.0 | 2.0 | 0.00 | 0.00 | 0.00 | 94 | 1020.1 |
| 20260507073213 | 39 | 73 | 0.0 | 2.0 | 0.00 | 0.00 | 0.00 | 94 | 1020.2 |
| 20260507072711 | 39 | 106 | 1.0 | 2.0 | 0.00 | 0.00 | 0.00 | 94 | 1020.0 |
| 20260507072208 | 39 | 112 | 2.0 | 2.0 | 0.00 | 0.00 | 0.00 | 94 | 1020.1 |
| 20260507071705 | 39 | 94 | 1.0 | 3.0 | 0.00 | 0.00 | 0.00 | 94 | 1020.1 |
| 20260507071201 | 39 | 100 | 2.0 | 2.0 | 0.00 | 0.00 | 0.00 | 94 | 1020.1 |
| 20260507070659 | 40 | 97 | 2.0 | 3.0 | 0.00 | 0.00 | 0.00 | 93 | 1020.2 |
| 20260507070155 | 40 | 113 | 2.0 | 3.0 | 0.00 | 0.00 | 0.00 | 93 | 1020.1 |
| 20260507065652 | 40 | 108 | 1.0 | 3.0 | 0.00 | 0.00 | 0.00 | 93 | 1020.2 |
| 20260507065149 | 40 | 94 | 1.0 | 3.0 | 0.00 | 0.00 | 0.00 | 93 | 1020.3 |
| 20260507064646 | 40 | 89 | 1.0 | 3.0 | 0.00 | 0.00 | 0.00 | 93 | 1020.3 |
| 20260507064144 | 40 | 96 | 2.0 | 3.0 | 0.00 | 0.00 | 0.00 | 92 | 1020.4 |
| 20260507063642 | 40 | 104 | 0.0 | 2.0 | 0.00 | 0.00 | 0.00 | 92 | 1020.3 |
| 20260507063138 | 40 | 100 | 2.0 | 2.0 | 0.00 | 0.00 | 0.00 | 92 | 1020.1 |
| 20260507062635 | 41 | 111 | 1.0 | 3.0 | 0.00 | 0.00 | 0.00 | 92 | 1020.5 |
| 20260507062133 | 41 | 100 | 2.0 | 2.0 | 0.00 | 0.00 | 0.00 | 92 | 1020.3 |
| 20260507061631 | 41 | 101 | 0.0 | 3.0 | 0.00 | 0.00 | 0.00 | 92 | 1020.1 |
| 20260507061129 | 41 | 109 | 2.0 | 3.0 | 0.00 | 0.00 | 0.00 | 92 | 1020.4 |
| 20260507060626 | 41 | 94 | 2.0 | 3.0 | 0.00 | 0.00 | 0.00 | 92 | 1020.4 |
| 20260507060123 | 41 | 94 | 2.0 | 2.0 | 0.00 | 0.00 | 0.00 | 92 | 1020.2 |
| 20260507055618 | 41 | 102 | 1.0 | 3.0 | 0.00 | 0.00 | 0.00 | 92 | 1020.2 |
| 20260507055114 | 41 | 100 | 2.0 | 3.0 | 0.00 | 0.00 | 0.00 | 92 | 1020.3 |
| 20260507054610 | 41 | 93 | 1.0 | 3.0 | 0.00 | 0.00 | 0.00 | 92 | 1020.1 |
| 20260507054107 | 41 | 99 | 2.0 | 2.0 | 0.00 | 0.00 | 0.00 | 92 | 1020.2 |
| 20260507053605 | 42 | 105 | 1.0 | 2.0 | 0.00 | 0.00 | 0.00 | 92 | 1020.3 |
| 20260507053104 | 42 | 116 | 2.0 | 2.0 | 0.00 | 0.00 | 0.00 | 91 | 1020.3 |
| 20260507052602 | 42 | 89 | 2.0 | 3.0 | 0.00 | 0.00 | 0.00 | 91 | 1020.2 |
| 20260507052058 | 42 | 104 | 2.0 | 3.0 | 0.00 | 0.00 | 0.00 | 90 | 1020.2 |
| 20260507051555 | 42 | 106 | 2.0 | 2.0 | 0.00 | 0.00 | 0.00 | 90 | 1020.0 |
| 20260507051052 | 43 | 108 | 1.0 | 2.0 | 0.00 | 0.00 | 0.00 | 90 | 1019.9 |
| 20260507050549 | 42 | 94 | 2.0 | 2.0 | 0.00 | 0.00 | 0.00 | 91 | 1020.1 |
| 20260507050045 | 42 | 104 | 2.0 | 3.0 | 0.00 | 0.00 | 0.00 | 91 | 1020.1 |
| 20260507045542 | 42 | 124 | 0.0 | 2.0 | 0.00 | 0.05 | 0.05 | 91 | 1020.1 |
| 20260507045039 | 42 | 108 | 2.0 | 3.0 | 0.00 | 0.05 | 0.05 | 91 | 1019.9 |
| 20260507044536 | 43 | 106 | 1.0 | 3.0 | 0.00 | 0.05 | 0.05 | 91 | 1019.9 |
| 20260507044033 | 43 | 107 | 2.0 | 3.0 | 0.00 | 0.05 | 0.05 | 90 | 1020.0 |
| 20260507043528 | 43 | 102 | 1.0 | 3.0 | 0.00 | 0.05 | 0.05 | 90 | 1020.0 |
| 20260507043026 | 43 | 82 | 2.0 | 3.0 | 0.00 | 0.05 | 0.05 | 90 | 1020.0 |
| 20260507042522 | 43 | 119 | 1.0 | 3.0 | 0.00 | 0.05 | 0.05 | 90 | 1020.0 |
| 20260507042017 | 44 | 94 | 1.0 | 3.0 | 0.00 | 0.05 | 0.05 | 89 | 1019.9 |
| 20260507041514 | 44 | 87 | 1.0 | 3.0 | 0.00 | 0.05 | 0.05 | 88 | 1019.8 |
| 20260507041011 | 44 | 104 | 2.0 | 2.0 | 0.00 | 0.05 | 0.05 | 88 | 1020.0 |
| 20260507040508 | 44 | 94 | 1.0 | 3.0 | 0.00 | 0.05 | 0.05 | 88 | 1019.9 |
| 20260507040004 | 44 | 103 | 0.0 | 2.0 | 0.00 | 0.05 | 0.05 | 88 | 1019.6 |
| 20260507035500 | 44 | 111 | 2.0 | 3.0 | 0.00 | 0.05 | 0.05 | 88 | 1019.7 |
| 20260507034956 | 45 | 106 | 2.0 | 3.0 | 0.00 | 0.05 | 0.05 | 88 | 1020.1 |
| 20260507034454 | 44 | 95 | 2.0 | 3.0 | 0.00 | 0.05 | 0.05 | 87 | 1019.9 |
| 20260507033952 | 45 | 104 | 1.0 | 2.0 | 0.00 | 0.05 | 0.05 | 87 | 1019.9 |
| 20260507033449 | 45 | 100 | 2.0 | 2.0 | 0.00 | 0.05 | 0.05 | 86 | 1020.0 |
| 20260507032946 | 45 | 101 | 2.0 | 3.0 | 0.00 | 0.05 | 0.05 | 86 | 1019.8 |
| 20260507032443 | 46 | 108 | 2.0 | 3.0 | 0.00 | 0.05 | 0.05 | 85 | 1019.9 |
| 20260507031939 | 46 | 108 | 2.0 | 3.0 | 0.00 | 0.05 | 0.05 | 85 | 1019.9 |
| 20260507031435 | 46 | 107 | 2.0 | 3.0 | 0.00 | 0.05 | 0.05 | 83 | 1019.8 |
| 20260507030932 | 47 | 95 | 1.0 | 3.0 | 0.00 | 0.05 | 0.05 | 83 | 1019.9 |
| 20260507030430 | 47 | 94 | 1.0 | 3.0 | 0.00 | 0.05 | 0.05 | 82 | 1019.8 |
| 20260507025927 | 47 | 112 | 2.0 | 2.0 | 0.00 | 0.05 | 0.05 | 82 | 1019.7 |
| 20260507025424 | 47 | 100 | 2.0 | 2.0 | 0.00 | 0.05 | 0.05 | 82 | 1019.7 |
| 20260507024922 | 48 | 107 | 1.0 | 3.0 | 0.00 | 0.05 | 0.05 | 82 | 1019.9 |
| 20260507024419 | 48 | 110 | 1.0 | 2.0 | 0.00 | 0.05 | 0.05 | 82 | 1019.7 |
| 20260507023914 | 48 | 102 | 2.0 | 3.0 | 0.00 | 0.05 | 0.05 | 79 | 1019.7 |
| 20260507023412 | 48 | 99 | 0.0 | 3.0 | 0.00 | 0.05 | 0.05 | 79 | 1019.9 |
| 20260507022909 | 49 | 107 | 2.0 | 3.0 | 0.00 | 0.05 | 0.05 | 79 | 1019.8 |
| 20260507022406 | 49 | 102 | 2.0 | 3.0 | 0.00 | 0.05 | 0.05 | 78 | 1019.7 |
| 20260507021901 | 49 | 111 | 1.0 | 2.0 | 0.00 | 0.05 | 0.05 | 78 | 1019.7 |
| 20260507021357 | 50 | 104 | 1.0 | 3.0 | 0.00 | 0.05 | 0.05 | 77 | 1019.7 |
| 20260507020855 | 50 | 119 | 2.0 | 3.0 | 0.00 | 0.05 | 0.05 | 76 | 1019.5 |
| 20260507020351 | 50 | 107 | 1.0 | 3.0 | 0.00 | 0.05 | 0.05 | 76 | 1019.6 |
| 20260507015848 | 51 | 117 | 1.0 | 2.0 | 0.00 | 0.05 | 0.05 | 75 | 1019.3 |
| 20260507015346 | 51 | 103 | 2.0 | 3.0 | 0.00 | 0.05 | 0.05 | 74 | 1019.4 |
| 20260507014843 | 50 | 106 | 1.0 | 3.0 | 0.00 | 0.05 | 0.05 | 75 | 1019.3 |
| 20260507014339 | 51 | 113 | 1.0 | 3.0 | 0.00 | 0.05 | 0.05 | 72 | 1019.0 |
| 20260507013836 | 52 | 125 | 0.0 | 3.0 | 0.00 | 0.05 | 0.05 | 71 | 1018.8 |
| 20260507013333 | 53 | 103 | 2.0 | 3.0 | 0.00 | 0.05 | 0.05 | 69 | 1019.0 |
| 20260507012830 | 54 | 113 | 2.0 | 2.0 | 0.00 | 0.05 | 0.05 | 67 | 1018.9 |
| 20260507012326 | 55 | 105 | 2.0 | 2.0 | 0.00 | 0.05 | 0.05 | 66 | 1018.7 |
| 20260507011823 | 55 | 89 | 0.0 | 2.0 | 0.00 | 0.05 | 0.05 | 65 | 1018.7 |
| 20260507011320 | 56 | 126 | 0.0 | 1.0 | 0.00 | 0.05 | 0.05 | 64 | 1018.8 |
| 20260507010820 | 56 | 156 | 0.0 | 2.0 | 0.00 | 0.05 | 0.05 | 63 | 1018.7 |
| 20260507010315 | 57 | 135 | 0.0 | 1.0 | 0.00 | 0.05 | 0.05 | 63 | 1018.3 |
| 20260507005813 | 57 | 129 | 0.0 | 2.0 | 0.00 | 0.05 | 0.05 | 61 | 1018.4 |
| 20260507005309 | 57 | 76 | 0.0 | 2.0 | 0.00 | 0.05 | 0.05 | 60 | 1018.2 |
| 20260507004801 | 56 | 85 | 0.0 | 2.0 | 0.00 | 0.05 | 0.05 | 59 | 1018.4 |
| 20260507004258 | 57 | 22 | 0.0 | 1.0 | 0.00 | 0.05 | 0.05 | 58 | 1018.3 |
| 20260507003754 | 57 | 122 | 0.0 | 2.0 | 0.00 | 0.05 | 0.05 | 56 | 1018.1 |
| 20260507003250 | 58 | 59 | 1.0 | 3.0 | 0.00 | 0.05 | 0.05 | 55 | 1018.2 |
| 20260507002746 | 59 | 77 | 1.0 | 4.0 | 0.00 | 0.05 | 0.05 | 53 | 1018.3 |
| 20260507002242 | 59 | 89 | 0.0 | 2.0 | 0.00 | 0.05 | 0.05 | 54 | 1018.2 |
| 20260507001739 | 59 | 89 | 0.0 | 2.0 | 0.00 | 0.05 | 0.05 | 55 | 1018.0 |
| 20260507001237 | 59 | 48 | 2.0 | 5.0 | 0.00 | 0.05 | 0.05 | 49 | 1018.2 |
| 20260507000733 | 60 | 121 | 2.0 | 3.0 | 0.00 | 0.05 | 0.05 | 50 | 1018.1 |
| 20260507000228 | 60 | 132 | 3.0 | 4.0 | 0.00 | 0.05 | 0.05 | 54 | 1018.0 |
| 20260506235725 | 59 | 131 | 2.0 | 4.0 | 0.00 | 0.05 | 0.05 | 53 | 1018.1 |
| 20260506235221 | 59 | 95 | 2.0 | 6.0 | 0.00 | 0.05 | 0.05 | 50 | 1018.1 |
| 20260506234718 | 59 | 122 | 0.0 | 3.0 | 0.00 | 0.05 | 0.05 | 54 | 1018.1 |
| 20260506234215 | 59 | 145 | 2.0 | 4.0 | 0.00 | 0.05 | 0.05 | 53 | 1017.9 |
| 20260506233713 | 60 | 137 | 2.0 | 5.0 | 0.00 | 0.05 | 0.05 | 47 | 1017.8 |
| 20260506233209 | 60 | 156 | 0.0 | 4.0 | 0.00 | 0.05 | 0.05 | 43 | 1017.8 |
| 20260506232707 | 60 | 188 | 3.0 | 5.0 | 0.00 | 0.05 | 0.05 | 49 | 1018.2 |
| 20260506232200 | 60 | 88 | 2.0 | 5.0 | 0.00 | 0.05 | 0.05 | 53 | 1018.1 |
| 20260506231658 | 62 | 127 | 0.0 | 2.0 | 0.00 | 0.05 | 0.05 | 52 | 1018.1 |
| 20260506231157 | 61 | 78 | 2.0 | 6.0 | 0.00 | 0.05 | 0.05 | 49 | 1017.9 |
| 20260506230653 | 63 | 142 | 0.0 | 2.0 | 0.00 | 0.05 | 0.05 | 48 | 1018.2 |
| 20260506230150 | 61 | 134 | 2.0 | 4.0 | 0.00 | 0.05 | 0.05 | 49 | 1018.3 |
| 20260506225646 | 61 | 218 | 2.0 | 2.0 | 0.00 | 0.05 | 0.05 | 46 | 1018.0 |
| 20260506225143 | 61 | 225 | 1.0 | 4.0 | 0.00 | 0.05 | 0.05 | 53 | 1018.2 |
| 20260506224639 | 63 | 116 | 3.0 | 4.0 | 0.00 | 0.05 | 0.05 | 49 | 1018.0 |
| 20260506224136 | 62 | 116 | 2.0 | 3.0 | 0.00 | 0.05 | 0.05 | 52 | 1018.4 |
| 20260506223632 | 63 | 130 | 1.0 | 3.0 | 0.00 | 0.05 | 0.05 | 48 | 1018.1 |
| 20260506223128 | 64 | 178 | 1.0 | 3.0 | 0.00 | 0.05 | 0.05 | 45 | 1018.1 |
| 20260506222626 | 65 | 118 | 0.0 | 3.0 | 0.00 | 0.05 | 0.05 | 49 | 1018.2 |
| 20260506222122 | 64 | 106 | 4.0 | 7.0 | 0.00 | 0.05 | 0.05 | 46 | 1018.1 |
| 20260506221620 | 66 | 229 | 0.0 | 3.0 | 0.00 | 0.05 | 0.05 | 41 | 1018.2 |
| 20260506221118 | 67 | 104 | 0.0 | 2.0 | 0.00 | 0.05 | 0.05 | 45 | 1018.4 |
| 20260506220614 | 69 | 133 | 4.0 | 7.0 | 0.00 | 0.05 | 0.05 | 37 | 1018.2 |
| 20260506220109 | 67 | 130 | 2.0 | 4.0 | 0.00 | 0.05 | 0.05 | 42 | 1018.3 |
| 20260506215606 | 65 | 135 | 0.0 | 4.0 | 0.00 | 0.05 | 0.05 | 45 | 1018.3 |
| 20260506215101 | 66 | 139 | 2.0 | 10.0 | 0.00 | 0.05 | 0.05 | 45 | 1018.3 |
| 20260506214559 | 68 | 19 | 1.0 | 7.0 | 0.00 | 0.05 | 0.05 | 38 | 1018.3 |
| 20260506214056 | 66 | 37 | 3.0 | 7.0 | 0.00 | 0.05 | 0.05 | 44 | 1018.1 |
| 20260506213554 | 68 | 267 | 0.0 | 4.0 | 0.00 | 0.05 | 0.05 | 38 | 1018.4 |
| 20260506213051 | 67 | 181 | 0.0 | 4.0 | 0.00 | 0.05 | 0.05 | 43 | 1018.7 |
| 20260506212548 | 68 | 247 | 3.0 | 4.0 | 0.00 | 0.05 | 0.05 | 38 | 1018.3 |
| 20260506212043 | 68 | 164 | 3.0 | 7.0 | 0.00 | 0.05 | 0.05 | 40 | 1018.6 |
| 20260506211539 | 67 | 231 | 3.0 | 7.0 | 0.00 | 0.05 | 0.05 | 41 | 1018.4 |
| 20260506211036 | 67 | 230 | 2.0 | 4.0 | 0.00 | 0.05 | 0.05 | 46 | 1018.6 |
| 20260506210532 | 69 | 278 | 1.0 | 5.0 | 0.00 | 0.05 | 0.05 | 42 | 1018.5 |
| 20260506210029 | 68 | 253 | 1.0 | 2.0 | 0.00 | 0.05 | 0.05 | 42 | 1018.6 |
| 20260506205526 | 68 | 35 | 2.0 | 3.0 | 0.00 | 0.05 | 0.05 | 42 | 1018.5 |